Time,TemperatureF,DewpointF,PressureIn,WindDirection,WindDirectionDegrees,WindSpeedMPH,WindSpeedGustMPH,Humidity,HourlyPrecipIn,Conditions,Clouds,dailyrainin,SoftwareType,DateUTC
2013-02-05 00:00:00,58.0,55.1,29.83,ESE,113,5.8,7.8,90,0.00,,,0.00,WUHU216HW,2013-02-05 06:00:00,
2013-02-05 00:05:00,58.0,55.1,29.83,SE,135,5.8,6.3,90,0.00,,,0.00,WUHU216HW,2013-02-05 06:05:00,
2013-02-05 00:10:00,58.0,55.1,29.83,SE,135,5.8,6.3,90,0.00,,,0.00,WUHU216HW,2013-02-05 06:10:00,
2013-02-05 00:15:00,58.0,54.7,29.83,SE,135,5.4,6.3,89,0.00,,,0.00,WUHU216HW,2013-02-05 06:15:00,
2013-02-05 00:20:00,58.0,54.7,29.83,ESE,113,4.9,5.8,89,0.00,,,0.00,WUHU216HW,2013-02-05 06:20:00,
2013-02-05 00:25:00,58.0,55.1,29.83,SE,135,4.9,5.8,90,0.00,,,0.00,WUHU216HW,2013-02-05 06:25:00,
2013-02-05 00:30:00,57.8,55.2,29.83,East,90,3.8,5.8,91,0.00,,,0.00,WUHU216HW,2013-02-05 06:30:00,
2013-02-05 00:35:00,57.8,55.4,29.83,SE,135,3.6,5.4,92,0.00,,,0.00,WUHU216HW,2013-02-05 06:35:00,
2013-02-05 00:40:00,57.8,55.4,29.83,East,90,4.7,6.3,92,0.00,,,0.00,WUHU216HW,2013-02-05 06:40:00,
2013-02-05 00:45:00,57.8,55.4,29.83,ENE,68,3.4,6.3,92,0.00,,,0.00,WUHU216HW,2013-02-05 06:45:00,
2013-02-05 00:50:00,58.0,56.0,29.83,ENE,68,5.1,5.4,93,0.00,,,0.00,WUHU216HW,2013-02-05 06:50:00,
2013-02-05 00:55:00,57.8,55.8,29.83,East,90,3.4,5.4,93,0.00,,,0.00,WUHU216HW,2013-02-05 06:55:00,
2013-02-05 01:00:00,57.6,55.6,29.83,ESE,113,1.6,4.0,93,0.00,,,0.00,WUHU216HW,2013-02-05 07:00:00,
2013-02-05 01:05:00,57.6,55.6,29.84,ESE,113,1.3,4.0,93,0.00,,,0.00,WUHU216HW,2013-02-05 07:05:00,
2013-02-05 01:10:00,57.8,55.8,29.83,East,90,2.5,3.4,93,0.00,,,0.00,WUHU216HW,2013-02-05 07:10:00,
2013-02-05 01:15:00,57.8,55.8,29.84,East,90,2.5,3.4,93,0.00,,,0.00,WUHU216HW,2013-02-05 07:15:00,
2013-02-05 01:20:00,58.0,56.0,29.84,ENE,68,2.9,2.9,93,0.00,,,0.00,WUHU216HW,2013-02-05 07:20:00,
2013-02-05 01:25:00,58.0,56.0,29.84,East,90,2.7,4.0,93,0.00,,,0.00,WUHU216HW,2013-02-05 07:25:00,
2013-02-05 01:30:00,58.0,56.3,29.83,ESE,113,3.4,4.0,94,0.00,,,0.00,WUHU216HW,2013-02-05 07:30:00,
2013-02-05 01:35:00,58.0,56.3,29.83,ESE,113,3.4,4.0,94,0.00,,,0.00,WUHU216HW,2013-02-05 07:35:00,
2013-02-05 01:40:00,58.0,56.3,29.83,ESE,113,3.4,3.8,94,0.00,,,0.00,WUHU216HW,2013-02-05 07:40:00,
2013-02-05 01:45:00,58.1,56.4,29.84,East,90,3.6,4.3,94,0.00,,,0.00,WUHU216HW,2013-02-05 07:45:00,
2013-02-05 01:50:00,58.1,56.4,29.83,East,90,2.7,4.3,94,0.00,,,0.00,WUHU216HW,2013-02-05 07:50:00,
2013-02-05 01:55:00,58.3,56.6,29.83,ESE,113,2.9,3.4,94,0.00,,,0.00,WUHU216HW,2013-02-05 07:55:00,
2013-02-05 02:00:00,58.3,56.6,29.83,ESE,113,2.0,4.3,94,0.00,,,0.00,WUHU216HW,2013-02-05 08:00:00,
2013-02-05 02:05:00,58.3,56.6,29.83,ESE,113,4.0,4.3,94,0.00,,,0.00,WUHU216HW,2013-02-05 08:05:00,
2013-02-05 02:10:00,58.3,56.6,29.83,ESE,113,2.2,4.9,94,0.00,,,0.00,WUHU216HW,2013-02-05 08:10:00,
2013-02-05 02:15:00,58.3,56.6,29.83,East,90,4.9,4.9,94,0.00,,,0.00,WUHU216HW,2013-02-05 08:15:00,
2013-02-05 02:20:00,58.5,56.8,29.83,ESE,113,2.7,4.9,94,0.00,,,0.00,WUHU216HW,2013-02-05 08:20:00,
2013-02-05 02:25:00,58.7,57.2,29.83,ESE,113,1.6,4.7,95,0.00,,,0.00,WUHU216HW,2013-02-05 08:25:00,
2013-02-05 02:30:00,58.5,57.1,29.83,ESE,113,3.4,4.7,95,0.00,,,0.00,WUHU216HW,2013-02-05 08:30:00,
2013-02-05 02:35:00,58.7,57.0,29.83,SE,135,2.7,4.7,94,0.00,,,0.00,WUHU216HW,2013-02-05 08:35:00,
2013-02-05 02:40:00,58.7,57.2,29.83,ESE,113,1.8,4.7,95,0.00,,,0.00,WUHU216HW,2013-02-05 08:40:00,
2013-02-05 02:45:00,58.7,57.2,29.83,ESE,113,2.0,3.4,95,0.00,,,0.00,WUHU216HW,2013-02-05 08:45:00,
2013-02-05 02:50:00,58.7,57.2,29.83,ESE,113,4.0,4.0,95,0.00,,,0.00,WUHU216HW,2013-02-05 08:50:00,
2013-02-05 02:55:00,58.7,57.2,29.83,ESE,113,0.9,4.0,95,0.00,,,0.00,WUHU216HW,2013-02-05 08:55:00,
2013-02-05 03:00:00,58.7,57.2,29.83,ESE,113,2.5,3.4,95,0.00,,,0.00,WUHU216HW,2013-02-05 09:00:00,
2013-02-05 03:05:00,58.7,57.2,29.83,SE,135,3.4,3.4,95,0.00,,,0.00,WUHU216HW,2013-02-05 09:05:00,
2013-02-05 03:10:00,58.7,57.0,29.83,SE,135,3.4,3.8,94,0.00,,,0.00,WUHU216HW,2013-02-05 09:10:00,
2013-02-05 03:15:00,58.7,57.2,29.83,SE,135,2.2,3.8,95,0.00,,,0.00,WUHU216HW,2013-02-05 09:15:00,
2013-02-05 03:20:00,58.9,57.4,29.83,SE,135,1.8,5.1,95,0.00,,,0.00,WUHU216HW,2013-02-05 09:20:00,
2013-02-05 03:25:00,58.9,57.2,29.83,ESE,113,1.8,5.1,94,0.00,,,0.00,WUHU216HW,2013-02-05 09:25:00,
2013-02-05 03:30:00,58.9,57.4,29.83,SE,135,1.3,4.7,95,0.00,,,0.00,WUHU216HW,2013-02-05 09:30:00,
2013-02-05 03:35:00,58.9,57.2,29.83,SE,135,3.4,4.7,94,0.00,,,0.00,WUHU216HW,2013-02-05 09:35:00,
2013-02-05 03:40:00,59.0,57.3,29.83,SE,135,3.1,3.4,94,0.00,,,0.00,WUHU216HW,2013-02-05 09:40:00,
2013-02-05 03:45:00,59.0,57.3,29.83,SE,135,2.0,3.4,94,0.00,,,0.00,WUHU216HW,2013-02-05 09:45:00,
2013-02-05 03:50:00,59.0,57.3,29.83,ESE,113,1.1,3.4,94,0.00,,,0.00,WUHU216HW,2013-02-05 09:50:00,
2013-02-05 03:55:00,59.2,57.5,29.83,ESE,113,2.2,3.6,94,0.00,,,0.00,WUHU216HW,2013-02-05 09:55:00,
2013-02-05 04:00:00,59.2,57.8,29.83,East,90,2.0,3.6,95,0.00,,,0.00,WUHU216HW,2013-02-05 10:00:00,
2013-02-05 04:05:00,59.2,57.5,29.83,ESE,113,2.2,2.7,94,0.00,,,0.00,WUHU216HW,2013-02-05 10:05:00,
2013-02-05 04:10:00,59.2,57.5,29.83,ENE,68,3.4,3.4,94,0.00,,,0.00,WUHU216HW,2013-02-05 10:10:00,
2013-02-05 04:15:00,59.2,57.5,29.83,ENE,68,3.1,3.4,94,0.00,,,0.00,WUHU216HW,2013-02-05 10:15:00,
2013-02-05 04:20:00,59.2,57.8,29.83,East,90,1.8,3.1,95,0.00,,,0.00,WUHU216HW,2013-02-05 10:20:00,
2013-02-05 04:25:00,59.0,57.6,29.83,East,90,2.2,2.9,95,0.00,,,0.00,WUHU216HW,2013-02-05 10:25:00,
2013-02-05 04:30:00,59.2,57.8,29.83,ESE,113,1.8,2.5,95,0.00,,,0.00,WUHU216HW,2013-02-05 10:30:00,
2013-02-05 04:35:00,59.2,57.8,29.83,East,90,2.7,2.7,95,0.00,,,0.00,WUHU216HW,2013-02-05 10:35:00,
2013-02-05 04:40:00,59.2,57.8,29.83,East,90,2.5,2.7,95,0.00,,,0.00,WUHU216HW,2013-02-05 10:40:00,
2013-02-05 04:45:00,59.2,57.8,29.83,ENE,68,3.4,3.4,95,0.00,,,0.00,WUHU216HW,2013-02-05 10:45:00,
2013-02-05 04:50:00,59.2,57.8,29.83,ENE,68,3.1,4.5,95,0.00,,,0.00,WUHU216HW,2013-02-05 10:50:00,
2013-02-05 04:55:00,59.2,57.8,29.83,East,90,2.5,4.5,95,0.00,,,0.00,WUHU216HW,2013-02-05 10:55:00,
2013-02-05 05:00:00,59.2,57.8,29.83,ESE,113,3.1,4.0,95,0.00,,,0.00,WUHU216HW,2013-02-05 11:00:00,
2013-02-05 05:05:00,59.4,58.0,29.83,ESE,113,3.4,3.4,95,0.00,,,0.00,WUHU216HW,2013-02-05 11:05:00,
2013-02-05 05:10:00,59.4,58.0,29.83,ESE,113,3.1,4.5,95,0.00,,,0.00,WUHU216HW,2013-02-05 11:10:00,
2013-02-05 05:15:00,59.4,58.0,29.83,ESE,113,4.5,4.5,95,0.00,,,0.00,WUHU216HW,2013-02-05 11:15:00,
2013-02-05 05:20:00,59.2,57.8,29.83,ESE,113,3.6,4.5,95,0.00,,,0.00,WUHU216HW,2013-02-05 11:20:00,
2013-02-05 05:25:00,59.2,57.8,29.83,SE,135,1.8,4.3,95,0.00,,,0.00,WUHU216HW,2013-02-05 11:25:00,
2013-02-05 05:30:00,59.2,57.8,29.83,SE,135,2.5,4.0,95,0.00,,,0.00,WUHU216HW,2013-02-05 11:30:00,
2013-02-05 05:35:00,59.4,58.0,29.83,ESE,113,2.5,4.0,95,0.00,,,0.00,WUHU216HW,2013-02-05 11:35:00,
2013-02-05 05:40:00,59.4,58.0,29.83,SE,135,2.0,3.8,95,0.00,,,0.00,WUHU216HW,2013-02-05 11:40:00,
2013-02-05 05:45:00,59.6,58.1,29.84,East,90,2.2,3.8,95,0.00,,,0.00,WUHU216HW,2013-02-05 11:45:00,
2013-02-05 05:50:00,59.6,58.1,29.84,ENE,68,3.6,3.6,95,0.00,,,0.00,WUHU216HW,2013-02-05 11:50:00,
2013-02-05 05:55:00,59.8,58.6,29.84,ENE,68,3.6,4.0,96,0.00,,,0.00,WUHU216HW,2013-02-05 11:55:00,
2013-02-05 06:00:00,59.6,58.1,29.85,ENE,68,2.5,5.1,95,0.00,,,0.00,WUHU216HW,2013-02-05 12:00:00,
2013-02-05 06:05:00,59.8,58.6,29.85,ENE,68,3.6,5.1,96,0.00,,,0.00,WUHU216HW,2013-02-05 12:05:00,
2013-02-05 06:10:00,59.8,58.6,29.85,East,90,3.4,3.8,96,0.00,,,0.00,WUHU216HW,2013-02-05 12:10:00,
2013-02-05 06:15:00,59.8,58.6,29.85,ENE,68,2.7,4.0,96,0.00,,,0.00,WUHU216HW,2013-02-05 12:15:00,
2013-02-05 06:20:00,59.8,58.6,29.85,East,90,2.0,4.0,96,0.00,,,0.00,WUHU216HW,2013-02-05 12:20:00,
2013-02-05 06:25:00,59.8,58.6,29.85,East,90,4.0,4.3,96,0.00,,,0.00,WUHU216HW,2013-02-05 12:25:00,
2013-02-05 06:30:00,59.8,58.6,29.86,East,90,3.4,4.3,96,0.00,,,0.00,WUHU216HW,2013-02-05 12:30:00,
2013-02-05 06:35:00,59.8,58.6,29.86,ENE,68,3.1,5.1,96,0.00,,,0.00,WUHU216HW,2013-02-05 12:35:00,
2013-02-05 06:40:00,59.8,58.6,29.86,East,90,4.0,5.4,96,0.00,,,0.00,WUHU216HW,2013-02-05 12:40:00,
2013-02-05 06:45:00,59.8,58.6,29.86,East,90,4.0,5.4,96,0.00,,,0.00,WUHU216HW,2013-02-05 12:45:00,
2013-02-05 06:50:00,59.8,58.6,29.86,East,90,4.0,4.7,96,0.00,,,0.00,WUHU216HW,2013-02-05 12:50:00,
2013-02-05 06:55:00,59.8,58.6,29.86,East,90,4.0,5.4,96,0.00,,,0.00,WUHU216HW,2013-02-05 12:55:00,
2013-02-05 07:00:00,59.6,58.1,29.86,East,90,3.6,5.4,95,0.00,,,0.00,WUHU216HW,2013-02-05 13:00:00,
2013-02-05 07:05:00,59.6,58.1,29.86,East,90,4.3,4.3,95,0.00,,,0.00,WUHU216HW,2013-02-05 13:05:00,
2013-02-05 07:10:00,59.8,58.6,29.86,ESE,113,3.8,4.3,96,0.00,,,0.00,WUHU216HW,2013-02-05 13:10:00,
2013-02-05 07:15:00,59.6,58.1,29.86,ESE,113,3.8,4.5,95,0.00,,,0.00,WUHU216HW,2013-02-05 13:15:00,
2013-02-05 07:20:00,59.6,58.1,29.87,East,90,2.7,4.7,95,0.00,,,0.00,WUHU216HW,2013-02-05 13:20:00,
2013-02-05 07:25:00,59.8,58.6,29.87,East,90,2.9,4.7,96,0.00,,,0.00,WUHU216HW,2013-02-05 13:25:00,
2013-02-05 07:30:00,59.6,58.1,29.87,ENE,68,3.6,4.0,95,0.00,,,0.00,WUHU216HW,2013-02-05 13:30:00,
2013-02-05 07:35:00,59.6,58.1,29.88,East,90,2.5,3.6,95,0.00,,,0.00,WUHU216HW,2013-02-05 13:35:00,
2013-02-05 07:40:00,59.8,58.6,29.88,East,90,1.1,2.5,96,0.00,,,0.00,WUHU216HW,2013-02-05 13:40:00,
2013-02-05 07:45:00,59.8,58.6,29.89,East,90,1.8,1.8,96,0.00,,,0.00,WUHU216HW,2013-02-05 13:45:00,
2013-02-05 07:50:00,59.8,58.6,29.89,East,90,1.8,1.8,96,0.00,,,0.00,WUHU216HW,2013-02-05 13:50:00,
2013-02-05 07:55:00,59.9,58.8,29.89,East,90,1.1,2.2,96,0.00,,,0.00,WUHU216HW,2013-02-05 13:55:00,
2013-02-05 08:00:00,59.9,58.8,29.89,East,90,2.2,2.5,96,0.00,,,0.00,WUHU216HW,2013-02-05 14:00:00,
2013-02-05 08:05:00,60.1,59.0,29.90,ENE,68,0.9,2.7,96,0.00,,,0.00,WUHU216HW,2013-02-05 14:05:00,
2013-02-05 08:10:00,60.1,59.0,29.90,East,90,1.8,2.7,96,0.00,,,0.00,WUHU216HW,2013-02-05 14:10:00,
2013-02-05 08:15:00,60.1,59.0,29.90,East,90,2.5,2.9,96,0.00,,,0.00,WUHU216HW,2013-02-05 14:15:00,
2013-02-05 08:20:00,60.1,59.0,29.90,East,90,2.7,2.9,96,0.00,,,0.00,WUHU216HW,2013-02-05 14:20:00,
2013-02-05 08:25:00,60.1,59.0,29.90,East,90,2.5,2.7,96,0.00,,,0.00,WUHU216HW,2013-02-05 14:25:00,
2013-02-05 08:30:00,60.3,59.1,29.91,ENE,68,2.9,3.8,96,0.00,,,0.00,WUHU216HW,2013-02-05 14:30:00,
2013-02-05 08:35:00,60.3,59.1,29.91,ENE,68,4.5,4.5,96,0.00,,,0.00,WUHU216HW,2013-02-05 14:35:00,
2013-02-05 08:40:00,60.3,59.1,29.91,ENE,68,3.4,4.5,96,0.00,,,0.00,WUHU216HW,2013-02-05 14:40:00,
2013-02-05 08:45:00,60.5,59.3,29.91,ENE,68,3.8,3.8,96,0.00,,,0.00,WUHU216HW,2013-02-05 14:45:00,
2013-02-05 08:50:00,60.5,59.3,29.91,ENE,68,4.7,4.7,96,0.00,,,0.00,WUHU216HW,2013-02-05 14:50:00,
2013-02-05 08:55:00,60.5,59.3,29.91,ENE,68,2.5,4.7,96,0.00,,,0.00,WUHU216HW,2013-02-05 14:55:00,
2013-02-05 09:00:00,60.5,59.3,29.92,ENE,68,5.6,5.8,96,0.00,,,0.00,WUHU216HW,2013-02-05 15:00:00,
2013-02-05 09:05:00,60.5,59.3,29.92,East,90,4.3,5.8,96,0.00,,,0.00,WUHU216HW,2013-02-05 15:05:00,
2013-02-05 09:10:00,60.5,59.3,29.92,ENE,68,3.4,5.8,96,0.00,,,0.00,WUHU216HW,2013-02-05 15:10:00,
2013-02-05 09:15:00,60.7,59.5,29.92,East,90,3.8,5.8,96,0.00,,,0.00,WUHU216HW,2013-02-05 15:15:00,
2013-02-05 09:20:00,60.7,59.5,29.92,ENE,68,3.6,4.7,96,0.00,,,0.00,WUHU216HW,2013-02-05 15:20:00,
2013-02-05 09:25:00,60.7,59.5,29.93,ENE,68,4.0,4.7,96,0.00,,,0.00,WUHU216HW,2013-02-05 15:25:00,
2013-02-05 09:30:00,60.7,59.5,29.93,ENE,68,3.8,4.7,96,0.00,,,0.00,WUHU216HW,2013-02-05 15:30:00,
2013-02-05 09:35:00,60.8,59.7,29.93,ENE,68,5.8,5.8,96,0.00,,,0.00,WUHU216HW,2013-02-05 15:35:00,
2013-02-05 09:40:00,60.8,59.7,29.94,ENE,68,6.0,6.0,96,0.00,,,0.00,WUHU216HW,2013-02-05 15:40:00,
2013-02-05 09:45:00,60.8,59.7,29.94,ENE,68,5.8,6.0,96,0.00,,,0.00,WUHU216HW,2013-02-05 15:45:00,
2013-02-05 09:50:00,60.8,59.7,29.94,East,90,3.4,5.8,96,0.00,,,0.00,WUHU216HW,2013-02-05 15:50:00,
2013-02-05 09:55:00,61.2,60.0,29.94,ESE,113,3.4,5.4,96,0.00,,,0.00,WUHU216HW,2013-02-05 15:55:00,
2013-02-05 10:00:00,61.2,60.0,29.94,ENE,68,4.7,5.1,96,0.00,,,0.00,WUHU216HW,2013-02-05 16:00:00,
2013-02-05 10:05:00,61.2,60.0,29.94,East,90,3.6,5.1,96,0.00,,,0.00,WUHU216HW,2013-02-05 16:05:00,
2013-02-05 10:10:00,61.4,60.2,29.94,ESE,113,2.7,4.5,96,0.00,,,0.00,WUHU216HW,2013-02-05 16:10:00,
2013-02-05 10:15:00,61.6,60.4,29.94,East,90,5.6,6.0,96,0.00,,,0.00,WUHU216HW,2013-02-05 16:15:00,
2013-02-05 10:20:00,61.9,60.8,29.94,East,90,3.8,6.0,96,0.00,,,0.00,WUHU216HW,2013-02-05 16:20:00,
2013-02-05 10:25:00,61.9,60.8,29.94,ENE,68,4.9,5.4,96,0.00,,,0.00,WUHU216HW,2013-02-05 16:25:00,
2013-02-05 10:30:00,62.3,61.1,29.94,East,90,2.9,5.4,96,0.00,,,0.00,WUHU216HW,2013-02-05 16:30:00,
2013-02-05 10:35:00,62.6,61.5,29.94,East,90,4.3,5.4,96,0.00,,,0.00,WUHU216HW,2013-02-05 16:35:00,
2013-02-05 10:40:00,62.6,61.5,29.94,East,90,5.4,5.4,96,0.00,,,0.00,WUHU216HW,2013-02-05 16:40:00,
2013-02-05 10:45:00,62.8,61.7,29.94,SE,135,3.6,5.8,96,0.00,,,0.00,WUHU216HW,2013-02-05 16:45:00,
2013-02-05 10:50:00,63.2,62.0,29.94,SE,135,2.7,5.8,96,0.00,,,0.00,WUHU216HW,2013-02-05 16:50:00,
2013-02-05 10:55:00,63.9,62.7,29.94,ESE,113,4.0,4.7,96,0.00,,,0.00,WUHU216HW,2013-02-05 16:55:00,
2013-02-05 11:00:00,63.9,62.7,29.94,East,90,4.9,6.5,96,0.00,,,0.00,WUHU216HW,2013-02-05 17:00:00,
2013-02-05 11:05:00,64.8,63.6,29.93,SE,135,4.5,6.5,96,0.00,,,0.00,WUHU216HW,2013-02-05 17:05:00,
2013-02-05 11:10:00,65.0,63.6,29.93,ESE,113,4.5,6.7,95,0.00,,,0.00,WUHU216HW,2013-02-05 17:10:00,
2013-02-05 11:15:00,65.5,63.7,29.94,East,90,3.1,6.7,94,0.00,,,0.00,WUHU216HW,2013-02-05 17:15:00,
2013-02-05 11:20:00,65.5,63.1,29.94,SE,135,3.6,5.1,92,0.00,,,0.00,WUHU216HW,2013-02-05 17:20:00,
2013-02-05 11:25:00,66.4,64.6,29.94,SSE,158,3.8,5.4,94,0.00,,,0.00,WUHU216HW,2013-02-05 17:25:00,
2013-02-05 11:30:00,67.1,65.0,29.93,SE,135,2.9,5.4,93,0.00,,,0.00,WUHU216HW,2013-02-05 17:30:00,
2013-02-05 11:35:00,67.5,64.1,29.93,ESE,113,2.7,4.7,89,0.00,,,0.00,WUHU216HW,2013-02-05 17:35:00,
2013-02-05 11:40:00,68.2,65.2,29.93,South,180,2.5,4.7,90,0.00,,,0.00,WUHU216HW,2013-02-05 17:40:00,
2013-02-05 11:45:00,68.8,63.4,29.93,ESE,113,5.1,5.1,83,0.00,,,0.00,WUHU216HW,2013-02-05 17:45:00,
2013-02-05 11:50:00,68.9,64.5,29.93,SE,135,4.3,5.1,86,0.00,,,0.00,WUHU216HW,2013-02-05 17:50:00,
2013-02-05 11:55:00,69.8,64.7,29.93,SE,135,4.9,4.9,84,0.00,,,0.00,WUHU216HW,2013-02-05 17:55:00,
2013-02-05 12:00:00,70.2,64.1,29.93,SE,135,3.4,5.1,81,0.00,,,0.00,WUHU216HW,2013-02-05 18:00:00,
2013-02-05 12:05:00,70.9,63.3,29.92,SE,135,2.7,5.1,77,0.00,,,0.00,WUHU216HW,2013-02-05 18:05:00,
2013-02-05 12:10:00,71.3,63.6,29.92,SSE,158,4.3,4.5,77,0.00,,,0.00,WUHU216HW,2013-02-05 18:10:00,
2013-02-05 12:15:00,71.8,63.8,29.92,SE,135,5.4,5.4,76,0.00,,,0.00,WUHU216HW,2013-02-05 18:15:00,
2013-02-05 12:20:00,72.0,64.0,29.92,South,180,4.7,6.3,76,0.00,,,0.00,WUHU216HW,2013-02-05 18:20:00,
2013-02-05 12:25:00,72.4,64.0,29.92,South,180,5.4,6.3,75,0.00,,,0.00,WUHU216HW,2013-02-05 18:25:00,
2013-02-05 12:30:00,72.7,64.7,29.92,SSE,158,3.1,5.4,76,0.00,,,0.00,WUHU216HW,2013-02-05 18:30:00,
2013-02-05 12:35:00,73.1,64.4,29.91,SSE,158,4.3,5.6,74,0.00,,,0.00,WUHU216HW,2013-02-05 18:35:00,
2013-02-05 12:40:00,73.3,63.7,29.91,South,180,1.8,5.6,72,0.00,,,0.00,WUHU216HW,2013-02-05 18:40:00,
2013-02-05 12:45:00,74.0,63.6,29.91,SSW,203,5.4,5.4,70,0.00,,,0.00,WUHU216HW,2013-02-05 18:45:00,
2013-02-05 12:50:00,74.7,64.7,29.91,SSW,203,0.9,5.4,71,0.00,,,0.00,WUHU216HW,2013-02-05 18:50:00,
2013-02-05 12:55:00,74.7,61.3,29.91,ESE,113,6.3,7.6,63,0.00,,,0.00,WUHU216HW,2013-02-05 18:55:00,
2013-02-05 13:00:00,73.1,61.9,29.91,ESE,113,2.9,7.6,68,0.00,,,0.00,WUHU216HW,2013-02-05 19:00:00,
2013-02-05 13:05:00,71.8,60.7,29.91,ENE,68,3.6,6.0,68,0.00,,,0.00,WUHU216HW,2013-02-05 19:05:00,
2013-02-05 13:10:00,70.4,60.1,29.91,ESE,113,4.3,6.0,70,0.00,,,0.00,WUHU216HW,2013-02-05 19:10:00,
2013-02-05 13:15:00,70.0,59.8,29.90,ENE,68,5.1,5.8,70,0.00,,,0.00,WUHU216HW,2013-02-05 19:15:00,
2013-02-05 13:20:00,70.0,59.3,29.90,East,90,1.8,5.4,69,0.00,,,0.00,WUHU216HW,2013-02-05 19:20:00,
2013-02-05 13:25:00,70.0,60.1,29.90,NE,45,0.9,3.4,71,0.00,,,0.00,WUHU216HW,2013-02-05 19:25:00,
2013-02-05 13:30:00,70.2,59.9,29.90,East,90,3.6,3.6,70,0.00,,,0.00,WUHU216HW,2013-02-05 19:30:00,
2013-02-05 13:35:00,70.2,59.9,29.90,ENE,68,3.4,4.3,70,0.00,,,0.00,WUHU216HW,2013-02-05 19:35:00,
2013-02-05 13:40:00,70.6,60.3,29.89,East,90,0.9,4.3,70,0.00,,,0.00,WUHU216HW,2013-02-05 19:40:00,
2013-02-05 13:45:00,70.7,59.7,29.89,NE,45,2.7,3.4,68,0.00,,,0.00,WUHU216HW,2013-02-05 19:45:00,
2013-02-05 13:50:00,70.6,59.5,29.89,ESE,113,0.4,4.0,68,0.00,,,0.00,WUHU216HW,2013-02-05 19:50:00,
2013-02-05 13:55:00,71.3,61.0,29.89,South,180,1.1,4.0,70,0.00,,,0.00,WUHU216HW,2013-02-05 19:55:00,
2013-02-05 14:00:00,72.2,60.6,29.89,NE,45,5.8,6.3,67,0.00,,,0.00,WUHU216HW,2013-02-05 20:00:00,
2013-02-05 14:05:00,72.2,60.6,29.89,ENE,68,2.5,6.5,67,0.00,,,0.00,WUHU216HW,2013-02-05 20:05:00,
2013-02-05 14:10:00,72.4,60.3,29.89,ENE,68,5.4,7.8,66,0.00,,,0.00,WUHU216HW,2013-02-05 20:10:00,
2013-02-05 14:15:00,71.6,59.7,29.89,East,90,3.4,8.5,66,0.00,,,0.00,WUHU216HW,2013-02-05 20:15:00,
2013-02-05 14:20:00,71.6,60.5,29.89,NE,45,2.2,8.5,68,0.00,,,0.00,WUHU216HW,2013-02-05 20:20:00,
2013-02-05 14:25:00,72.4,61.7,29.89,SE,135,0.9,3.4,69,0.00,,,0.00,WUHU216HW,2013-02-05 20:25:00,
2013-02-05 14:30:00,72.7,60.7,29.89,NNE,23,5.6,6.3,66,0.00,,,0.00,WUHU216HW,2013-02-05 20:30:00,
2013-02-05 14:35:00,72.9,61.3,29.88,ESE,113,4.3,6.3,67,0.00,,,0.00,WUHU216HW,2013-02-05 20:35:00,
2013-02-05 14:40:00,72.4,60.0,29.88,ENE,68,2.2,6.3,65,0.00,,,0.00,WUHU216HW,2013-02-05 20:40:00,
2013-02-05 14:45:00,72.0,60.0,29.88,East,90,4.7,7.2,66,0.00,,,0.00,WUHU216HW,2013-02-05 20:45:00,
2013-02-05 14:50:00,72.0,60.4,29.88,East,90,2.5,7.2,67,0.00,,,0.00,WUHU216HW,2013-02-05 20:50:00,
2013-02-05 14:55:00,72.7,61.1,29.88,ESE,113,3.8,4.3,67,0.00,,,0.00,WUHU216HW,2013-02-05 20:55:00,
2013-02-05 15:00:00,73.4,61.4,29.88,SE,135,2.0,3.8,66,0.00,,,0.00,WUHU216HW,2013-02-05 21:00:00,
2013-02-05 15:05:00,73.1,61.0,29.88,East,90,4.5,5.4,66,0.00,,,0.00,WUHU216HW,2013-02-05 21:05:00,
2013-02-05 15:10:00,73.6,60.7,29.87,East,90,3.4,5.4,64,0.00,,,0.00,WUHU216HW,2013-02-05 21:10:00,
2013-02-05 15:15:00,73.4,59.1,29.87,ENE,68,5.1,5.8,61,0.00,,,0.00,WUHU216HW,2013-02-05 21:15:00,
2013-02-05 15:20:00,72.7,59.0,29.87,NNE,23,5.6,6.3,62,0.00,,,0.00,WUHU216HW,2013-02-05 21:20:00,
2013-02-05 15:25:00,72.7,59.8,29.87,East,90,0.4,6.3,64,0.00,,,0.00,WUHU216HW,2013-02-05 21:25:00,
2013-02-05 15:30:00,72.7,59.4,29.87,ENE,68,1.6,4.7,63,0.00,,,0.00,WUHU216HW,2013-02-05 21:30:00,
2013-02-05 15:35:00,73.4,60.5,29.87,East,90,1.8,3.6,64,0.00,,,0.00,WUHU216HW,2013-02-05 21:35:00,
2013-02-05 15:40:00,73.4,59.1,29.87,ENE,68,5.4,5.4,61,0.00,,,0.00,WUHU216HW,2013-02-05 21:40:00,
2013-02-05 15:45:00,73.1,58.8,29.87,NE,45,4.5,6.9,61,0.00,,,0.00,WUHU216HW,2013-02-05 21:45:00,
2013-02-05 15:50:00,73.1,59.2,29.87,East,90,7.2,9.8,62,0.00,,,0.00,WUHU216HW,2013-02-05 21:50:00,
2013-02-05 15:55:00,73.1,59.7,29.87,ENE,68,7.6,9.8,63,0.00,,,0.00,WUHU216HW,2013-02-05 21:55:00,
2013-02-05 16:00:00,73.6,59.3,29.87,ENE,68,5.4,7.6,61,0.00,,,0.00,WUHU216HW,2013-02-05 22:00:00,
2013-02-05 16:05:00,73.3,59.4,29.87,ESE,113,3.1,6.3,62,0.00,,,0.00,WUHU216HW,2013-02-05 22:05:00,
2013-02-05 16:10:00,72.9,59.0,29.87,NE,45,5.6,6.0,62,0.00,,,0.00,WUHU216HW,2013-02-05 22:10:00,
2013-02-05 16:15:00,72.7,59.0,29.87,East,90,3.6,6.0,62,0.00,,,0.00,WUHU216HW,2013-02-05 22:15:00,
2013-02-05 16:20:00,72.7,59.4,29.87,NE,45,5.4,6.9,63,0.00,,,0.00,WUHU216HW,2013-02-05 22:20:00,
2013-02-05 16:25:00,72.7,59.0,29.87,NE,45,4.5,6.9,62,0.00,,,0.00,WUHU216HW,2013-02-05 22:25:00,
2013-02-05 16:31:00,72.7,59.0,29.87,ESE,113,2.2,5.1,62,0.00,,,0.00,WUHU216HW,2013-02-05 22:31:00,
2013-02-05 16:35:00,72.5,58.8,29.87,ESE,113,1.8,4.7,62,0.00,,,0.00,WUHU216HW,2013-02-05 22:35:00,
2013-02-05 16:41:00,72.5,58.8,29.87,ENE,68,3.8,4.7,62,0.00,,,0.00,WUHU216HW,2013-02-05 22:41:00,
2013-02-05 16:46:00,72.7,59.0,29.87,NE,45,3.1,3.8,62,0.00,,,0.00,WUHU216HW,2013-02-05 22:46:00,
2013-02-05 16:51:00,72.5,59.7,29.87,NE,45,1.8,5.1,64,0.00,,,0.00,WUHU216HW,2013-02-05 22:51:00,
2013-02-05 16:56:00,72.4,60.0,29.88,NNE,23,6.3,6.7,65,0.00,,,0.00,WUHU216HW,2013-02-05 22:56:00,
2013-02-05 17:00:00,72.0,60.0,29.88,NNE,23,5.4,6.7,66,0.00,,,0.00,WUHU216HW,2013-02-05 23:00:00,
2013-02-05 17:05:00,71.6,59.7,29.88,NE,45,8.5,8.5,66,0.00,,,0.00,WUHU216HW,2013-02-05 23:05:00,
2013-02-05 17:11:00,71.3,58.9,29.88,NNE,23,4.0,8.5,65,0.00,,,0.00,WUHU216HW,2013-02-05 23:11:00,
2013-02-05 17:16:00,70.9,60.2,29.88,NNE,23,6.9,8.7,69,0.00,,,0.00,WUHU216HW,2013-02-05 23:16:00,
2013-02-05 17:21:00,70.2,60.3,29.88,NNE,23,10.3,10.3,71,0.00,,,0.00,WUHU216HW,2013-02-05 23:21:00,
2013-02-05 17:26:00,69.7,60.2,29.88,NNE,23,4.3,10.5,72,0.00,,,0.00,WUHU216HW,2013-02-05 23:26:00,
2013-02-05 17:31:00,69.3,60.2,29.88,North,0,6.3,10.5,73,0.00,,,0.00,WUHU216HW,2013-02-05 23:31:00,
2013-02-05 17:36:00,68.9,60.3,29.88,NNE,23,6.3,6.3,74,0.00,,,0.00,WUHU216HW,2013-02-05 23:36:00,
2013-02-05 17:41:00,68.6,60.8,29.88,NNE,23,6.3,6.3,76,0.00,,,0.00,WUHU216HW,2013-02-05 23:41:00,
2013-02-05 17:46:00,68.0,60.6,29.88,NNE,23,8.9,12.1,77,0.00,,,0.00,WUHU216HW,2013-02-05 23:46:00,
2013-02-05 17:51:00,67.3,60.3,29.89,NNE,23,9.8,12.1,78,0.00,,,0.00,WUHU216HW,2013-02-05 23:51:00,
2013-02-05 17:56:00,66.8,60.1,29.89,NE,45,6.9,11.6,79,0.00,,,0.00,WUHU216HW,2013-02-05 23:56:00,
2013-02-05 18:01:00,66.4,60.1,29.89,NNE,23,8.9,11.6,80,0.00,,,0.00,WUHU216HW,2013-02-06 00:01:00,
2013-02-05 18:06:00,66.1,59.8,29.89,NNE,23,5.6,8.9,80,0.00,,,0.00,WUHU216HW,2013-02-06 00:06:00,
2013-02-05 18:11:00,65.7,59.8,29.89,NE,45,8.5,11.4,81,0.00,,,0.00,WUHU216HW,2013-02-06 00:11:00,
2013-02-05 18:16:00,65.2,59.5,29.89,NNE,23,7.2,11.4,82,0.00,,,0.00,WUHU216HW,2013-02-06 00:16:00,
2013-02-05 18:21:00,64.8,59.5,29.89,NNE,23,10.3,12.3,83,0.00,,,0.00,WUHU216HW,2013-02-06 00:21:00,
2013-02-05 18:26:00,64.3,59.0,29.90,NNE,23,10.3,12.3,83,0.00,,,0.00,WUHU216HW,2013-02-06 00:26:00,
2013-02-05 18:31:00,63.9,58.6,29.90,NE,45,10.5,10.5,83,0.00,,,0.00,WUHU216HW,2013-02-06 00:31:00,
2013-02-05 18:36:00,63.5,59.0,29.90,NE,45,9.8,11.0,85,0.00,,,0.00,WUHU216HW,2013-02-06 00:36:00,
2013-02-05 18:41:00,63.2,58.6,29.90,NNE,23,6.3,11.0,85,0.00,,,0.00,WUHU216HW,2013-02-06 00:41:00,
2013-02-05 18:46:00,63.0,58.8,29.91,NNE,23,8.9,10.5,86,0.00,,,0.00,WUHU216HW,2013-02-06 00:46:00,
2013-02-05 18:51:00,62.6,58.4,29.91,NE,45,8.9,9.8,86,0.00,,,0.00,WUHU216HW,2013-02-06 00:51:00,
2013-02-05 18:56:00,62.3,58.1,29.91,NE,45,6.9,9.6,86,0.00,,,0.00,WUHU216HW,2013-02-06 00:56:00,
2013-02-05 19:01:00,62.1,58.2,29.91,NE,45,7.2,8.1,87,0.00,,,0.00,WUHU216HW,2013-02-06 01:01:00,
2013-02-05 19:06:00,61.7,57.9,29.91,NE,45,5.4,8.3,87,0.00,,,0.00,WUHU216HW,2013-02-06 01:06:00,
2013-02-05 19:11:00,61.4,57.5,29.91,NE,45,5.4,8.3,87,0.00,,,0.00,WUHU216HW,2013-02-06 01:11:00,
2013-02-05 19:16:00,61.2,57.7,29.92,NE,45,4.5,7.4,88,0.00,,,0.00,WUHU216HW,2013-02-06 01:16:00,
2013-02-05 19:21:00,60.8,57.3,29.92,NE,45,4.3,6.3,88,0.00,,,0.00,WUHU216HW,2013-02-06 01:21:00,
2013-02-05 19:26:00,60.8,57.6,29.92,NE,45,4.7,5.8,89,0.00,,,0.00,WUHU216HW,2013-02-06 01:26:00,
2013-02-05 19:31:00,60.5,57.2,29.92,NE,45,6.3,6.3,89,0.00,,,0.00,WUHU216HW,2013-02-06 01:31:00,
2013-02-05 19:36:00,60.3,57.4,29.93,NE,45,6.7,6.7,90,0.00,,,0.00,WUHU216HW,2013-02-06 01:36:00,
2013-02-05 19:41:00,60.1,57.2,29.93,NE,45,6.9,6.9,90,0.00,,,0.00,WUHU216HW,2013-02-06 01:41:00,
2013-02-05 19:46:00,59.9,57.1,29.93,NE,45,6.5,8.1,90,0.00,,,0.00,WUHU216HW,2013-02-06 01:46:00,
2013-02-05 19:51:00,59.9,57.3,29.93,NE,45,5.4,8.1,91,0.00,,,0.00,WUHU216HW,2013-02-06 01:51:00,
2013-02-05 19:56:00,59.8,57.2,29.93,NE,45,7.6,7.8,91,0.00,,,0.00,WUHU216HW,2013-02-06 01:56:00,
2013-02-05 20:01:00,59.8,57.4,29.93,NE,45,7.6,9.4,92,0.00,,,0.00,WUHU216HW,2013-02-06 02:01:00,
2013-02-05 20:06:00,59.6,57.2,29.94,NE,45,8.1,9.4,92,0.00,,,0.00,WUHU216HW,2013-02-06 02:06:00,
2013-02-05 20:11:00,59.4,57.1,29.94,NE,45,7.6,9.4,92,0.00,,,0.00,WUHU216HW,2013-02-06 02:11:00,
2013-02-05 20:16:00,59.4,57.1,29.94,NE,45,5.4,9.4,92,0.00,,,0.00,WUHU216HW,2013-02-06 02:16:00,
2013-02-05 20:21:00,59.4,57.1,29.94,NE,45,6.0,8.7,92,0.00,,,0.00,WUHU216HW,2013-02-06 02:21:00,
2013-02-05 20:26:00,59.2,56.9,29.94,NE,45,6.7,7.4,92,0.00,,,0.00,WUHU216HW,2013-02-06 02:26:00,
2013-02-05 20:31:00,59.0,56.7,29.94,NE,45,5.6,7.4,92,0.00,,,0.00,WUHU216HW,2013-02-06 02:31:00,
2013-02-05 20:36:00,58.9,56.5,29.94,NE,45,5.1,6.9,92,0.00,,,0.00,WUHU216HW,2013-02-06 02:36:00,
2013-02-05 20:41:00,58.7,56.3,29.94,NE,45,4.7,5.6,92,0.00,,,0.00,WUHU216HW,2013-02-06 02:41:00,
2013-02-05 20:46:00,58.5,56.2,29.94,NE,45,4.9,6.3,92,0.00,,,0.00,WUHU216HW,2013-02-06 02:46:00,
2013-02-05 20:51:00,58.5,56.2,29.94,NE,45,6.3,6.3,92,0.00,,,0.00,WUHU216HW,2013-02-06 02:51:00,
2013-02-05 20:56:00,58.3,56.0,29.94,NE,45,5.8,6.7,92,0.00,,,0.00,WUHU216HW,2013-02-06 02:56:00,
2013-02-05 21:01:00,58.3,56.0,29.94,NE,45,4.7,6.7,92,0.00,,,0.00,WUHU216HW,2013-02-06 03:01:00,
2013-02-05 21:06:00,58.0,55.6,29.94,ENE,68,5.4,6.3,92,0.00,,,0.00,WUHU216HW,2013-02-06 03:06:00,
2013-02-05 21:11:00,58.0,55.6,29.94,ENE,68,4.9,5.8,92,0.00,,,0.00,WUHU216HW,2013-02-06 03:11:00,
2013-02-05 21:16:00,58.0,55.6,29.94,ENE,68,4.7,5.8,92,0.00,,,0.00,WUHU216HW,2013-02-06 03:16:00,
2013-02-05 21:21:00,57.8,55.4,29.94,NE,45,4.7,5.4,92,0.00,,,0.00,WUHU216HW,2013-02-06 03:21:00,
2013-02-05 21:26:00,57.6,55.3,29.94,ENE,68,4.7,5.4,92,0.00,,,0.00,WUHU216HW,2013-02-06 03:26:00,
2013-02-05 21:31:00,57.6,55.3,29.94,NE,45,4.7,4.9,92,0.00,,,0.00,WUHU216HW,2013-02-06 03:31:00,
2013-02-05 21:36:00,57.4,55.1,29.94,NE,45,3.6,4.9,92,0.00,,,0.00,WUHU216HW,2013-02-06 03:36:00,
2013-02-05 21:41:00,57.2,54.9,29.94,NE,45,4.5,4.5,92,0.00,,,0.00,WUHU216HW,2013-02-06 03:41:00,
2013-02-05 21:46:00,57.2,55.3,29.95,NE,45,4.0,5.1,93,0.00,,,0.00,WUHU216HW,2013-02-06 03:46:00,
2013-02-05 21:51:00,57.1,55.1,29.95,NE,45,3.8,5.1,93,0.00,,,0.00,WUHU216HW,2013-02-06 03:51:00,
2013-02-05 21:56:00,56.9,54.9,29.95,NE,45,2.7,4.0,93,0.00,,,0.00,WUHU216HW,2013-02-06 03:56:00,
2013-02-05 22:01:00,56.9,54.9,29.95,NE,45,3.4,4.0,93,0.00,,,0.00,WUHU216HW,2013-02-06 04:01:00,
2013-02-05 22:06:00,56.7,54.7,29.96,NE,45,3.1,3.8,93,0.00,,,0.00,WUHU216HW,2013-02-06 04:06:00,
2013-02-05 22:11:00,56.5,54.6,29.96,NE,45,2.5,3.8,93,0.00,,,0.00,WUHU216HW,2013-02-06 04:11:00,
2013-02-05 22:16:00,56.5,54.6,29.96,NE,45,2.9,3.4,93,0.00,,,0.00,WUHU216HW,2013-02-06 04:16:00,
2013-02-05 22:21:00,56.5,54.6,29.96,NE,45,2.0,3.1,93,0.00,,,0.00,WUHU216HW,2013-02-06 04:21:00,
2013-02-05 22:26:00,56.5,54.6,29.96,NE,45,3.4,3.4,93,0.00,,,0.00,WUHU216HW,2013-02-06 04:26:00,
2013-02-05 22:31:00,56.5,54.6,29.96,NE,45,4.0,4.0,93,0.00,,,0.00,WUHU216HW,2013-02-06 04:31:00,
2013-02-05 22:36:00,56.5,54.6,29.96,NE,45,3.8,4.0,93,0.00,,,0.00,WUHU216HW,2013-02-06 04:36:00,
2013-02-05 22:41:00,56.5,54.6,29.96,NE,45,2.5,4.3,93,0.00,,,0.00,WUHU216HW,2013-02-06 04:41:00,
2013-02-05 22:46:00,56.3,54.4,29.96,NE,45,2.5,4.3,93,0.00,,,0.00,WUHU216HW,2013-02-06 04:46:00,
2013-02-05 22:51:00,56.3,54.4,29.96,NNE,23,3.1,3.4,93,0.00,,,0.00,WUHU216HW,2013-02-06 04:51:00,
2013-02-05 22:56:00,56.2,54.2,29.96,NE,45,2.9,3.4,93,0.00,,,0.00,WUHU216HW,2013-02-06 04:56:00,
2013-02-05 23:00:00,56.2,54.2,29.96,NE,45,4.0,4.0,93,0.00,,,0.00,WUHU216HW,2013-02-06 05:00:00,
2013-02-05 23:05:00,56.2,54.5,29.96,NE,45,3.8,4.0,94,0.00,,,0.00,WUHU216HW,2013-02-06 05:05:00,
2013-02-05 23:10:00,56.2,54.5,29.96,NE,45,3.6,4.7,94,0.00,,,0.00,WUHU216HW,2013-02-06 05:10:00,
2013-02-05 23:15:00,56.0,54.3,29.96,NE,45,4.3,4.7,94,0.00,,,0.00,WUHU216HW,2013-02-06 05:15:00,
2013-02-05 23:20:00,56.0,54.3,29.96,NNE,23,4.0,4.3,94,0.00,,,0.00,WUHU216HW,2013-02-06 05:20:00,
2013-02-05 23:25:00,55.8,54.1,29.96,NNE,23,2.2,4.3,94,0.00,,,0.00,WUHU216HW,2013-02-06 05:25:00,
2013-02-05 23:30:00,55.8,54.1,29.96,NE,45,2.7,3.1,94,0.00,,,0.00,WUHU216HW,2013-02-06 05:30:00,
2013-02-05 23:35:00,55.6,53.9,29.96,NE,45,1.8,2.7,94,0.00,,,0.00,WUHU216HW,2013-02-06 05:35:00,
2013-02-05 23:40:00,55.6,53.9,29.96,ENE,68,1.8,2.5,94,0.00,,,0.00,WUHU216HW,2013-02-06 05:40:00,
2013-02-05 23:45:00,55.8,54.1,29.96,NE,45,3.8,3.8,94,0.00,,,0.00,WUHU216HW,2013-02-06 05:45:00,
2013-02-05 23:50:00,55.8,54.1,29.96,NE,45,3.4,3.8,94,0.00,,,0.00,WUHU216HW,2013-02-06 05:50:00,
2013-02-05 23:55:00,55.8,54.1,29.96,NE,45,1.6,3.6,94,0.00,,,0.00,WUHU216HW,2013-02-06 05:55:00,